Waarnemingen

Advertentie
Mijn weer
Valley, Groot Brittannië (3302): temperatuur & dauwpunt: 12.10.2017 06:00:00 - 18.10.2017 06:00:00 (BST)Valley, Groot Brittannië (3302): temperatuur -20cm & temperatuur -100cm: 12.10.2017 06:00:00 - 18.10.2017 06:00:00 (BST)Valley, Groot Brittannië (3302): windsnelheid & windstoten: 12.10.2017 06:00:00 - 18.10.2017 06:00:00 (BST)Valley, Groot Brittannië (3302): windrichting: 12.10.2017 06:00:00 - 18.10.2017 06:00:00 (BST)Valley, Groot Brittannië (3302): luchtdruk: 12.10.2017 06:00:00 - 18.10.2017 06:00:00 (BST)Valley, Groot Brittannië (3302): zicht: 12.10.2017 06:00:00 - 18.10.2017 06:00:00 (BST)Valley, Groot Brittannië (3302): Zonneschijnduur: 12.10.2017 06:00:00 - 18.10.2017 06:00:00 (BST)Valley, Groot Brittannië (3302): neerslag: 12.10.2017 06:00:00 - 18.10.2017 06:00:00 (BST)
Datum & Tijd tt [°C] td [°C] tt -20cm [°C] tt -100cm [°C] ff [km/u] ff [kn] fx [km/u] fx [kn] dd ppp [hPa] vv [km] sd [min] rr [mm]
18.10.2017 06:00:00 6,8 5,3 - - 8 4 - - ONO 1013,0 10 0 0,0
18.10.2017 05:00:00 6,8 5,3 - - 11 6 - - O 1013,2 10 0 0,0
18.10.2017 04:00:00 7,4 6,0 - - 9 5 - - O 1013,7 10 0 0,0
18.10.2017 03:00:00 8,7 7,1 - - 11 6 - - OZO 1014,3 10 0 0,0
18.10.2017 02:00:00 10,4 8,2 - - 5 3 - - NO 1014,8 10 0 0,0
18.10.2017 01:00:00 9,5 8,0 - - 9 5 - - O 1015,1 10 - 0,0
18.10.2017 00:00:00 9,6 7,7 - - 9 5 - - O 1015,5 10 0 0,0
17.10.2017 23:00:00 9,4 6,7 - - 8 4 - - O 1015,8 10 0 0,0
17.10.2017 22:00:00 10,4 6,7 - - 4 2 - - WZW 1015,7 10 0 0,0
17.10.2017 21:00:00 11,1 7,0 - - 9 5 - - WZW 1015,5 10 0 0,0
17.10.2017 20:00:00 12,3 7,5 - - 9 5 - - WZW 1015,9 10 0 0,0
17.10.2017 19:00:00 12,2 6,9 - - 13 7 - - WZW 1015,9 10 0 0,0
17.10.2017 18:00:00 12,5 6,5 - - 13 7 - - WZW 1016,0 10 0 0,0
17.10.2017 17:00:00 13,6 7,4 - - 24 13 - - ZW 1016,1 10 6 0,0
17.10.2017 16:00:00 13,9 6,6 - - 29 16 - - ZW 1016,2 10 36 0,0
17.10.2017 15:00:00 13,8 7,1 - - 29 16 - - ZW 1016,6 10 42 0,0
17.10.2017 14:00:00 13,9 7,9 - - 34 18 46 25 ZW 1016,7 10 60 0,0
17.10.2017 13:00:00 14,0 7,9 - - 35 19 48 26 ZW 1016,9 10 60 0,0
17.10.2017 12:00:00 13,4 7,7 - - 37 20 52 28 WZW 1016,6 10 60 0,0
17.10.2017 11:00:00 12,9 8,1 - - 42 23 54 29 ZW 1016,0 10 60 0,0
17.10.2017 10:00:00 12,3 7,4 13,9 14,0 41 22 55 30 WZW 1015,7 10 42 0,0
17.10.2017 09:00:00 11,9 7,6 - - 44 24 61 33 ZW 1014,9 10 18 0,0
17.10.2017 08:00:00 11,9 7,8 - - 48 26 67 36 ZW 1013,9 10 0 0,0
17.10.2017 07:00:00 11,8 6,7 - - 54 29 72 39 ZW 1013,3 10 0 0,0
17.10.2017 06:00:00 12,2 7,8 - - 54 29 78 42 ZW 1012,5 10 0 0,0
17.10.2017 05:00:00 12,6 8,0 - - 55 30 74 40 ZW 1012,2 10 0 0,0
17.10.2017 04:00:00 12,7 7,6 - - 55 30 80 43 ZW 1012,0 10 0 0,0
17.10.2017 03:00:00 12,9 8,0 - - 61 33 85 46 ZW 1011,0 10 0 0,0
17.10.2017 02:00:00 13,3 7,8 - - 65 35 89 48 ZW 1010,2 10 0 0,0
17.10.2017 01:00:00 13,7 9,0 - - 68 37 94 51 ZZW 1008,9 9 - 0,0
17.10.2017 00:00:00 13,7 9,3 - - 74 40 104 56 ZZW 1007,1 5 0 0,0
16.10.2017 23:00:00 14,0 10,1 - - 81 44 111 60 ZZW 1005,6 4,9 0 0,0
16.10.2017 22:00:00 13,9 9,9 - - 81 44 117 63 ZZW 1004,3 3,8 0 0,0
16.10.2017 21:00:00 13,7 10,0 - - 83 45 115 62 ZZW 1002,6 3,3 0 0,0
16.10.2017 20:00:00 13,2 10,6 - - 80 43 117 63 Z 1002,4 3,1 0 0,0
16.10.2017 19:00:00 13,3 10,9 - - 83 45 124 67 Z 1001,3 3,3 0 0,0
16.10.2017 18:00:00 14,1 9,9 - - 94 51 124 67 Z 999,7 4,7 0 0,0
16.10.2017 17:00:00 14,4 9,9 - - 87 47 128 69 Z 1000,0 6 0 0,0
16.10.2017 16:00:00 15,0 8,4 - - 91 49 130 70 Z 1000,7 6 0 0,0
16.10.2017 15:00:00 16,2 9,4 - - 76 41 100 54 Z 1001,0 8 12 0,0
16.10.2017 14:00:00 16,5 9,4 - - 70 38 96 52 Z 1002,2 10 18 0,0
16.10.2017 13:00:00 17,2 11,3 - - 65 35 87 47 Z 1003,3 8 54 0,0
16.10.2017 12:00:00 18,3 13,0 - - 55 30 78 42 Z 1003,4 10 30 0,0
16.10.2017 11:00:00 19,0 13,7 - - 44 24 72 39 Z 1004,1 10 0 0,0
16.10.2017 10:00:00 20,2 12,1 14,7 14,0 39 21 48 26 ZZO 1004,0 10 0 0,0
16.10.2017 09:00:00 15,2 13,2 - - 22 12 - - ONO 1004,6 10 0 0,6
16.10.2017 08:00:00 14,8 13,1 - - 11 6 - - N 1007,1 6 0 0,4
16.10.2017 07:00:00 14,1 13,3 - - 13 7 - - NNW 1008,7 10 0 0,2
16.10.2017 06:00:00 14,1 13,2 - - 9 5 - - NO 1009,2 8 0 0,0
16.10.2017 05:00:00 14,4 13,5 - - 11 6 - - OZO 1010,1 8 0 0,0
16.10.2017 04:00:00 14,6 13,5 - - 18 10 - - ZO 1011,2 7 0 0,0
16.10.2017 03:00:00 14,9 13,7 - - 15 8 - - ZZO 1012,0 8 0 0,0
16.10.2017 02:00:00 15,0 13,7 - - 16 9 - - ZZO 1012,6 8 0 0,0
16.10.2017 01:00:00 14,8 13,8 - - 15 8 - - ZZO 1013,1 7 - 0,0
16.10.2017 00:00:00 15,1 13,7 - - 15 8 - - Z 1013,0 8 0 0,0
15.10.2017 23:00:00 14,9 13,5 - - 22 12 - - ZZO 1013,0 8 0 0,0
15.10.2017 22:00:00 15,0 13,3 - - 24 13 - - Z 1013,0 10 0 0,0
15.10.2017 21:00:00 15,0 13,2 - - 26 14 - - Z 1013,0 10 0 0,0
15.10.2017 20:00:00 15,1 13,1 - - 26 14 - - Z 1013,3 10 0 0,0
15.10.2017 19:00:00 15,0 13,0 - - 28 15 - - Z 1012,9 10 0 0,0
15.10.2017 18:00:00 15,0 13,1 - - 31 17 - - Z 1012,7 10 0 0,0
15.10.2017 17:00:00 15,2 12,8 - - 34 18 - - Z 1012,7 9 0 0,0
15.10.2017 16:00:00 15,2 12,9 - - 37 20 46 25 Z 1012,8 10 0 0,0
15.10.2017 15:00:00 15,4 13,0 - - 37 20 52 28 Z 1013,0 10 0 0,0
15.10.2017 14:00:00 15,7 13,4 - - 41 22 55 30 Z 1013,2 10 0 0,0
15.10.2017 13:00:00 15,7 13,2 - - 41 22 55 30 Z 1013,2 10 0 0,0
15.10.2017 12:00:00 15,5 12,9 - - 44 24 57 31 Z 1013,2 10 6 0,0
15.10.2017 11:00:00 14,9 12,8 - - 44 24 55 30 Z 1013,0 10 0 0,0
15.10.2017 10:00:00 14,8 12,3 14,7 14,0 44 24 65 35 Z 1012,9 9 0 0,0
15.10.2017 09:00:00 14,5 12,7 - - 41 22 59 32 ZZW 1013,3 9 0 0,0
15.10.2017 08:00:00 14,4 12,4 - - 39 21 54 29 Z 1013,2 9 0 0,0
15.10.2017 07:00:00 14,3 12,7 - - 39 21 55 30 ZZW 1013,3 9 0 0,0
15.10.2017 06:00:00 14,0 13,5 - - 42 23 55 30 ZZW 1013,4 3,5 0 0,2
15.10.2017 05:00:00 14,4 13,8 - - 35 19 - - Z 1013,7 3,8 0 0,0
15.10.2017 04:00:00 14,5 13,3 - - 34 18 46 25 Z 1014,3 5 0 0,0
15.10.2017 03:00:00 14,7 13,5 - - 37 20 50 27 Z 1014,8 10 0 0,0
15.10.2017 02:00:00 15,1 13,3 - - 41 22 59 32 Z 1015,5 10 0 0,0
15.10.2017 01:00:00 15,1 13,4 - - 35 19 - - Z 1016,0 10 - 0,0
15.10.2017 00:00:00 14,9 13,7 - - 29 16 - - Z 1016,3 10 0 0,0
14.10.2017 23:00:00 14,8 14,0 - - 28 15 - - Z 1017,3 9 0 0,0
14.10.2017 22:00:00 15,3 13,4 - - 24 13 - - Z 1017,8 10 0 0,0
14.10.2017 21:00:00 15,5 13,4 - - 28 15 - - Z 1018,8 10 0 0,0
14.10.2017 20:00:00 15,5 13,1 - - 35 19 - - Z 1019,2 10 0 0,0
14.10.2017 19:00:00 15,5 13,7 - - 29 16 - - Z 1019,6 10 0 0,0
14.10.2017 18:00:00 15,5 13,6 - - 31 17 - - Z 1019,7 10 0 0,0
14.10.2017 17:00:00 15,7 13,4 - - 31 17 46 25 Z 1019,9 10 0 0,0
14.10.2017 16:00:00 15,7 14,0 - - 37 20 48 26 Z 1020,0 7 0 0,0
14.10.2017 15:00:00 15,9 14,4 - - 37 20 48 26 Z 1020,1 8 0 0,0
14.10.2017 14:00:00 16,0 14,8 - - 39 21 52 28 Z 1019,9 7 0 0,2
14.10.2017 13:00:00 15,7 15,3 - - 31 17 48 26 Z 1020,0 5 0 0,0
14.10.2017 12:00:00 15,4 15,2 - - 39 21 52 28 ZZW 1020,0 5 0 0,0
14.10.2017 11:00:00 15,2 15,2 - - 37 20 48 26 ZZW 1019,7 2,5 0 0,0
14.10.2017 10:00:00 15,2 15,1 14,7 14,0 41 22 48 26 ZZW 1019,3 4,8 0 0,0
14.10.2017 09:00:00 15,2 15,2 - - 39 21 55 30 ZZW 1018,6 2,2 0 0,0
14.10.2017 08:00:00 15,1 15,1 - - 42 23 57 31 ZZW 1017,9 2,7 0 0,0
14.10.2017 07:00:00 15,1 15,1 - - 41 22 55 30 ZZW 1017,8 1,3 0 0,0
14.10.2017 06:00:00 15,2 15,2 - - 41 22 54 29 ZZW 1017,5 2,2 0 0,0
14.10.2017 05:00:00 15,1 15,1 - - 41 22 54 29 ZZW 1017,3 1,1 0 0,0
14.10.2017 04:00:00 15,2 15,2 - - 41 22 57 31 ZZW 1017,3 3,2 0 0,0
14.10.2017 03:00:00 15,1 15,1 - - 42 23 52 28 ZZW 1017,2 1,7 0 0,0
14.10.2017 02:00:00 15,2 15,1 - - 41 22 52 28 ZZW 1017,4 2,0 0 0,0
14.10.2017 01:00:00 15,2 15,1 - - 41 22 52 28 ZZW 1017,2 4,9 - 0,4
14.10.2017 00:00:00 15,2 15,2 - - 41 22 54 29 ZZW 1016,7 2,7 0 0,8
13.10.2017 23:00:00 15,2 15,1 - - 41 22 59 32 ZZW 1016,4 1,2 0 0,2
13.10.2017 22:00:00 15,3 15,2 - - 42 23 59 32 ZZW 1016,1 2,7 0 0,0
13.10.2017 21:00:00 15,5 15,1 - - 46 25 63 34 ZZW 1015,8 4,2 0 0,0
13.10.2017 20:00:00 15,6 15,2 - - 44 24 59 32 ZZW 1015,6 4,7 0 0,0
13.10.2017 19:00:00 15,4 15,2 - - 42 23 57 31 ZZW 1015,4 3,2 0 0,0
13.10.2017 18:00:00 15,5 15,2 - - 44 24 61 33 ZZW 1015,0 3,9 0 0,0
13.10.2017 17:00:00 15,5 15,3 - - 48 26 61 33 ZZW 1014,7 3,5 0 0,0
13.10.2017 16:00:00 15,6 15,3 - - 44 24 65 35 ZZW 1014,7 3,0 0 0,0
13.10.2017 15:00:00 15,7 15,4 - - 48 26 63 34 ZZW 1014,5 3,5 0 0,0
13.10.2017 14:00:00 15,7 15,3 - - 46 25 65 35 ZZW 1014,3 3,5 0 0,0
13.10.2017 13:00:00 16,0 15,3 - - 44 24 67 36 ZZW 1014,4 7 0 0,0
13.10.2017 12:00:00 16,0 15,3 - - 52 28 68 37 ZZW 1013,9 7 0 0,0
13.10.2017 11:00:00 15,8 15,2 - - 46 25 63 34 Z 1013,7 8 0 0,2
13.10.2017 10:00:00 15,8 15,2 14,2 14,0 46 25 59 32 Z 1013,1 5 0 0,0
13.10.2017 09:00:00 15,7 15,2 - - 48 26 63 34 ZZW 1013,0 6 0 0,0
13.10.2017 08:00:00 15,7 15,1 - - 50 27 67 36 ZZW 1012,4 7 0 0,0
13.10.2017 07:00:00 15,6 15,0 - - 50 27 72 39 Z 1012,4 6 0 0,0
13.10.2017 06:00:00 15,3 15,0 - - 50 27 70 38 Z 1012,3 4,4 0 0,0
13.10.2017 05:00:00 15,3 15,0 - - 55 30 70 38 Z 1011,9 3,2 0 0,0
13.10.2017 04:00:00 15,4 15,0 - - 55 30 76 41 Z 1012,5 4,4 0 0,0
13.10.2017 03:00:00 15,1 15,0 - - 52 28 65 35 Z 1012,9 2,5 0 0,0
13.10.2017 02:00:00 15,2 15,1 - - 54 29 65 35 Z 1013,5 2,1 0 0,0
13.10.2017 01:00:00 15,2 15,0 - - 50 27 67 36 Z 1013,8 2,6 - 0,0
13.10.2017 00:00:00 15,1 14,9 - - 46 25 65 35 Z 1013,8 3,9 0 0,0
12.10.2017 23:00:00 14,9 14,7 - - 46 25 61 33 Z 1014,3 3,2 0 0,0
12.10.2017 22:00:00 14,6 14,2 - - 42 23 59 32 Z 1014,6 6 0 0,2
12.10.2017 21:00:00 14,0 13,6 - - 42 23 61 33 Z 1015,1 3,0 0 0,0
12.10.2017 20:00:00 13,7 13,2 - - 46 25 63 34 Z 1015,4 5 0 0,0
12.10.2017 19:00:00 14,6 12,1 - - 42 23 57 31 Z 1015,8 10 0 0,0
12.10.2017 18:00:00 14,6 11,9 - - 48 26 61 33 Z 1015,7 10 0 0,0
12.10.2017 17:00:00 14,5 10,2 - - 48 26 61 33 Z 1015,6 10 42 0,0
12.10.2017 16:00:00 14,6 10,0 - - 42 23 61 33 Z 1016,1 10 6 0,0
12.10.2017 15:00:00 14,1 11,0 - - 42 23 61 33 ZZW 1016,7 10 12 0,0
12.10.2017 14:00:00 15,4 9,4 - - 34 18 46 25 ZZW 1017,2 10 48 0,0
12.10.2017 13:00:00 14,6 8,3 - - 35 19 48 26 ZZW 1017,5 10 60 0,0
12.10.2017 12:00:00 14,6 8,9 - - 34 18 - - ZZW 1017,7 10 54 0,0
12.10.2017 11:00:00 13,9 8,0 - - 31 17 - - ZW 1017,5 10 54 0,0
12.10.2017 10:00:00 13,0 8,1 13,7 14,0 29 16 - - ZW 1016,9 10 60 0,0
12.10.2017 09:00:00 12,2 8,1 - - 28 15 - - ZW 1016,3 10 12 0,0
12.10.2017 08:00:00 11,7 7,9 - - 28 15 - - ZW 1015,8 10 0 0,0
12.10.2017 07:00:00 11,5 7,8 - - 28 15 - - WZW 1015,4 10 0 0,0
12.10.2017 06:00:00 11,4 7,3 - - 28 15 - - WZW 1014,7 10 0 0,0

tt = temperatuur
td = dauwpunt
tt -20cm = temperatuur -20cm
tt -100cm = temperatuur -100cm
ff = windsnelheid
fx = windstoten
dd = windrichting
ppp = luchtdruk
vv = zicht
sd = Zonneschijnduur
rr = neerslag

Weerstations in de omgeving